Terug naar catalogus

KUIPER-00626

ActiefCommunicatieLEO
NORAD 69781·PAYLOAD·🇺🇸 United States

Gelanceerd Jul 2, 2026 vanaf Cape Canaveral Space Force Station

Loading…

Volgende Passages (komende 24 uur)

TLE

VersSource: CelesTrak SupGP

Epoch: Sep 14, 2026, 23:06 UTC

1 69781C 26151U   26257.96259259  .00001600  00000+0  20925-3 0  2579
2 69781  51.8968 251.1617 0001155 107.1466 104.7586 14.79958341    13

Volg KUIPER-00626 in realtime met AllMySat

Download on the App Store